• In Portugal
  • List of Countries
  • For 7 days
  • Water Temperature
  • Satellite Maps
  • Weather Map
  • Weather Widgets
  • user-avatar
    Login

    Hourly Weather Lugiele

    Today, 22 October, Monday

    Time Temperature Precipitation Wind Pressure Humidity
    00:00 +5°C° 0 mm 2 mps 748 mmHg 86%
    01:00 +5°C° 0 mm 2 mps 748 mmHg 87%
    02:00 +5°C° 0 mm 2 mps 747 mmHg 89%
    03:00 +3°C° 0 mm 3 mps 747 mmHg 90%
    04:00 +3°C° 0 mm 3 mps 747 mmHg 90%
    05:00 +3°C° 0 mm 3 mps 746 mmHg 91%
    06:00 +3°C° 0 mm 3 mps 746 mmHg 90%
    07:00 +3°C° 0 mm 4 mps 746 mmHg 89%
    08:00 +3°C° 0 mm 4 mps 746 mmHg 86%
    09:00 +4°C° 0 mm 4 mps 745 mmHg 80%
    10:00 +6°C° 0 mm 5 mps 745 mmHg 74%
    11:00 +7°C° 0 mm 5 mps 744 mmHg 69%
    12:00 +7°C° 0 mm 5 mps 744 mmHg 68%
    13:00 +8°C° 0 mm 5 mps 744 mmHg 67%
    14:00 +8°C° 0 mm 5 mps 743 mmHg 66%
    15:00 +8°C° 0.3 mm 5 mps 743 mmHg 71%
    16:00 +8°C° 0.3 mm 5 mps 742 mmHg 75%
    17:00 +7°C° 0.3 mm 5 mps 742 mmHg 80%
    18:00 +7°C° 0.4 mm 5 mps 742 mmHg 82%
    19:00 +7°C° 0.4 mm 5 mps 742 mmHg 83%
    20:00 +7°C° 0.4 mm 5 mps 742 mmHg 84%
    21:00 +6°C° 0 mm 4 mps 742 mmHg 86%
    22:00 +5°C° 0 mm 4 mps 742 mmHg 87%
    23:00 +4°C° 0 mm 3 mps 742 mmHg 89%

    Tomorrow, 23 October, Tuesday

    Time Temperature Precipitation Wind Pressure Humidity
    00:00 +3°C° 0 mm 3 mps 742 mmHg 89%
    01:00 +3°C° 0 mm 3 mps 741 mmHg 89%
    02:00 +3°C° 0 mm 3 mps 741 mmHg 89%
    03:00 +3°C° 0 mm 3 mps 741 mmHg 88%
    04:00 +3°C° 0 mm 4 mps 740 mmHg 88%
    05:00 +3°C° 0 mm 4 mps 739 mmHg 88%
    06:00 +3°C° 0.1 mm 4 mps 739 mmHg 87%
    07:00 +2°C° 0.1 mm 5 mps 738 mmHg 86%
    08:00 +3°C° 0.1 mm 5 mps 737 mmHg 85%
    09:00 +3°C° 0.4 mm 6 mps 736 mmHg 83%
    10:00 +4°C° 0.4 mm 7 mps 734 mmHg 80%
    11:00 +4°C° 0.4 mm 8 mps 733 mmHg 78%
    12:00 +4°C° 1.1 mm 8 mps 732 mmHg 79%
    13:00 +3°C° 1.1 mm 9 mps 730 mmHg 80%
    14:00 +2°C° 1.1 mm 9 mps 728 mmHg 81%
    15:00 +3°C° 1.3 mm 9 mps 727 mmHg 82%
    16:00 +5°C° 1.3 mm 8 mps 725 mmHg 84%
    17:00 +5°C° 1.3 mm 8 mps 724 mmHg 86%
    18:00 +5°C° 0.6 mm 7 mps 723 mmHg 85%
    19:00 +5°C° 0.6 mm 7 mps 723 mmHg 84%
    20:00 +5°C° 0.6 mm 6 mps 722 mmHg 84%
    21:00 +5°C° 0.4 mm 6 mps 721 mmHg 84%
    22:00 +5°C° 0.4 mm 6 mps 721 mmHg 83%
    23:00 +6°C° 0.4 mm 5 mps 720 mmHg 83%

    Day after tomorrow, 24 October, Wednesday

    Time Temperature Precipitation Wind Pressure Humidity
    00:00 +5°C° 0.5 mm 5 mps 720 mmHg 84%
    01:00 +5°C° 0.5 mm 5 mps 719 mmHg 84%
    02:00 +5°C° 0.5 mm 5 mps 718 mmHg 85%
    03:00 +3°C° 0.9 mm 5 mps 718 mmHg 85%
    04:00 +3°C° 0.9 mm 6 mps 718 mmHg 84%
    05:00 +3°C° 0.9 mm 7 mps 718 mmHg 84%
    06:00 +3°C° 0.5 mm 7 mps 718 mmHg 80%
    07:00 +2°C° 0.5 mm 7 mps 719 mmHg 76%
    08:00 +1°C° 0.5 mm 8 mps 720 mmHg 72%
    09:00 +1°C° 0 mm 8 mps 720 mmHg 71%
    10:00 +2°C° 0 mm 8 mps 720 mmHg 70%
    11:00 +3°C° 0 mm 9 mps 721 mmHg 69%
    12:00 +4°C° 0.8 mm 8 mps 721 mmHg 72%
    13:00 +5°C° 0.8 mm 8 mps 721 mmHg 75%
    14:00 +5°C° 0.8 mm 7 mps 721 mmHg 78%
    15:00 +5°C° 0.3 mm 8 mps 722 mmHg 78%
    16:00 +5°C° 0.3 mm 8 mps 723 mmHg 78%
    17:00 +5°C° 0.3 mm 9 mps 724 mmHg 78%
    18:00 +5°C° 0.2 mm 9 mps 725 mmHg 78%
    19:00 +5°C° 0.2 mm 9 mps 726 mmHg 79%
    20:00 +3°C° 0.2 mm 9 mps 727 mmHg 79%
    21:00 +4°C° 0.1 mm 8 mps 728 mmHg 79%
    22:00 +4°C° 0.1 mm 8 mps 728 mmHg 78%
    23:00 +2°C° 0.1 mm 8 mps 729 mmHg 78%

    25 October, Thursday

    Time Temperature Precipitation Wind Pressure Humidity
    00:00 +3°C° 0 mm 7 mps 729 mmHg 79%
    01:00 +3°C° 0 mm 7 mps 729 mmHg 80%
    02:00 +2°C° 0 mm 6 mps 730 mmHg 81%
    03:00 +2°C° 0 mm 6 mps 730 mmHg 83%
    04:00 +2°C° 0 mm 5 mps 729 mmHg 84%
    05:00 +1°C° 0 mm 4 mps 729 mmHg 86%
    06:00 +1°C° 0.1 mm 4 mps 729 mmHg 86%
    07:00 +3°C° 0.1 mm 3 mps 728 mmHg 85%
    08:00 +3°C° 0.1 mm 3 mps 728 mmHg 85%
    09:00 +3°C° 0.5 mm 3 mps 727 mmHg 84%
    10:00 +3°C° 0.5 mm 3 mps 726 mmHg 83%
    11:00 +4°C° 0.5 mm 2 mps 726 mmHg 82%
    12:00 +4°C° 0.5 mm 2 mps 726 mmHg 81%
    13:00 +4°C° 0.5 mm 2 mps 726 mmHg 80%
    14:00 +5°C° 0.5 mm 1 mps 726 mmHg 79%
    15:00 +5°C° 0 mm 1 mps 726 mmHg 81%
    16:00 +4°C° 0 mm 2 mps 727 mmHg 82%
    17:00 +4°C° 0 mm 2 mps 727 mmHg 84%
    18:00 +3°C° 0 mm 2 mps 728 mmHg 86%
    19:00 +3°C° 0 mm 2 mps 728 mmHg 88%
    20:00 +3°C° 0 mm 2 mps 729 mmHg 90%
    21:00 +3°C° 0 mm 2 mps 729 mmHg 91%
    22:00 +3°C° 0 mm 2 mps 729 mmHg 92%
    23:00 +3°C° 0 mm 2 mps 730 mmHg 93%

    26 October, Friday

    Time Temperature Precipitation Wind Pressure Humidity
    00:00 +2°C° 0 mm 2 mps 730 mmHg 93%
    01:00 +2°C° 0 mm 2 mps 731 mmHg 93%
    02:00 +2°C° 0 mm 2 mps 731 mmHg 94%
    03:00 +2°C° 0 mm 2 mps 731 mmHg 94%
    04:00 +2°C° 0 mm 2 mps 732 mmHg 94%
    05:00 +1°C° 0 mm 2 mps 732 mmHg 94%
    06:00 +1°C° 0 mm 2 mps 732 mmHg 94%
    07:00 +1°C° 0 mm 2 mps 733 mmHg 94%
    08:00 +1°C° 0 mm 2 mps 733 mmHg 94%
    09:00 +3°C° 0 mm 2 mps 734 mmHg 88%
    10:00 +4°C° 0 mm 2 mps 734 mmHg 82%
    11:00 +6°C° 0 mm 2 mps 734 mmHg 76%
    12:00 +7°C° 0 mm 2 mps 734 mmHg 72%
    13:00 +7°C° 0 mm 2 mps 734 mmHg 69%
    14:00 +8°C° 0 mm 3 mps 734 mmHg 65%
    15:00 +7°C° 0 mm 2 mps 734 mmHg 69%
    16:00 +6°C° 0 mm 2 mps 734 mmHg 74%
    17:00 +5°C° 0 mm 2 mps 734 mmHg 78%
    18:00 +5°C° 0 mm 2 mps 734 mmHg 80%
    19:00 +4°C° 0 mm 3 mps 733 mmHg 82%
    20:00 +3°C° 0 mm 3 mps 733 mmHg 84%
    21:00 +4°C° 0.1 mm 4 mps 733 mmHg 85%
    22:00 +4°C° 0.1 mm 4 mps 733 mmHg 86%
    23:00 +5°C° 0.1 mm 4 mps 733 mmHg 86%

    27 October, Saturday

    Time Temperature Precipitation Wind Pressure Humidity
    00:00 +5°C° 0.1 mm 5 mps 732 mmHg 86%
    01:00 +5°C° 0.1 mm 5 mps 732 mmHg 85%
    02:00 +5°C° 0.1 mm 5 mps 731 mmHg 84%
    03:00 +5°C° 0.1 mm 5 mps 731 mmHg 83%
    04:00 +4°C° 0.1 mm 6 mps 731 mmHg 83%
    05:00 +4°C° 0.1 mm 6 mps 730 mmHg 83%
    06:00 +5°C° 0.2 mm 5 mps 730 mmHg 85%
    07:00 +5°C° 0.2 mm 5 mps 730 mmHg 87%
    08:00 +5°C° 0.2 mm 5 mps 730 mmHg 89%
    09:00 +6°C° 0 mm 5 mps 730 mmHg 87%
    10:00 +7°C° 0 mm 5 mps 730 mmHg 86%
    11:00 +7°C° 0 mm 5 mps 730 mmHg 84%
    12:00 +8°C° 0 mm 5 mps 730 mmHg 82%
    13:00 +8°C° 0 mm 4 mps 730 mmHg 81%
    14:00 +8°C° 0 mm 4 mps 730 mmHg 79%
    15:00 +9°C° 0 mm 3 mps 730 mmHg 81%
    16:00 +8°C° 0 mm 2 mps 730 mmHg 84%
    17:00 +8°C° 0 mm 2 mps 730 mmHg 86%
    18:00 +8°C° 0 mm 1 mps 730 mmHg 88%
    19:00 +8°C° 0 mm 1 mps 731 mmHg 89%
    20:00 +8°C° 0 mm 1 mps 731 mmHg 90%
    21:00 +8°C° 0.1 mm 1 mps 731 mmHg 90%
    22:00 +8°C° 0.1 mm 1 mps 731 mmHg 91%
    23:00 +7°C° 0.1 mm 1 mps 730 mmHg 91%

    28 October, Sunday

    Time Temperature Precipitation Wind Pressure Humidity
    00:00 +6°C° 0.9 mm 2 mps 730 mmHg 92%
    01:00 +6°C° 0.9 mm 2 mps 730 mmHg 93%
    02:00 +5°C° 0.9 mm 3 mps 730 mmHg 94%
    03:00 +5°C° 0.8 mm 4 mps 729 mmHg 94%
    04:00 +5°C° 0.8 mm 4 mps 729 mmHg 94%
    05:00 +6°C° 0.8 mm 5 mps 728 mmHg 94%
    06:00 +6°C° 1.2 mm 5 mps 728 mmHg 93%
    07:00 +6°C° 1.2 mm 5 mps 728 mmHg 93%
    08:00 +6°C° 1.2 mm 5 mps 727 mmHg 93%
    09:00 +6°C° 0.5 mm 5 mps 727 mmHg 93%
    10:00 +6°C° 0.5 mm 4 mps 727 mmHg 92%
    11:00 +6°C° 0.5 mm 4 mps 727 mmHg 92%
    12:00 +6°C° 1.7 mm 4 mps 727 mmHg 93%
    13:00 +6°C° 1.7 mm 4 mps 727 mmHg 93%
    14:00 +7°C° 1.7 mm 3 mps 726 mmHg 93%
    15:00 +7°C° 0.5 mm 3 mps 726 mmHg 94%
    16:00 +7°C° 0.5 mm 2 mps 726 mmHg 94%
    17:00 +7°C° 0.5 mm 2 mps 726 mmHg 94%
    18:00 +7°C° 0.1 mm 2 mps 727 mmHg 94%
    19:00 +7°C° 0.1 mm 3 mps 727 mmHg 93%
    20:00 +6°C° 0.1 mm 4 mps 727 mmHg 92%
    21:00 +5°C° 0 mm 5 mps 728 mmHg 91%
    22:00 +5°C° 0 mm 5 mps 729 mmHg 89%
    23:00 +4°C° 0 mm 6 mps 730 mmHg 88%
    Show more